Location: Bukit Lungun
(2.6833°N, 113.9667°E)
Time: 14:34:36
(UTC+00:00)

CZ-3 R/B - Pass Details

Date: 02 March 2021
Orbit: 386 x 10219 km, 28.3° (Epoch: 13 April)

Event Time Altitude Azimuth Distance (km) Brightness Sun altitude
Rises 19:33:54 0° 245° (WSW) 15,005 7.2 -45.5°
Enters shadow 19:49:29 - 248° (WSW) 13,201 6.8 -41.7°
Exits shadow 20:28:36 42° 276° (W) 5,622 4.8 -32.0°
Maximum altitude 20:37:24 53° 321° (NW) 3,644 4.0 -29.8°
Drops below altitude 10° 20:47:55 10° 38° (NE) 3,700 4.9 -27.2°
Sets 20:49:58 0° 45° (NE) 4,203 5.3 -26.7°
